User: anonymous   Login
Location: Vancouver
(49.2500°N, 123.1330°W)
Time: 00:35:27
(UTC-07:00)
Language:

ISS - Orbit

View from above orbital plane
View from above orbital plane
View from above satellite
View from above satellite

Ground track
Ground track

The orbit data is extracted from the following two-line orbital elements,

1 25544U 98067A   16184.31015255  .00016717  00000-0  10270-3 0  9043
2 25544  51.6445 342.5924 0001262  14.5468 345.5721 15.54711285  7334
Epoch (UTC): 02 July 2016 07:26:37
Eccentricity: 0.0001262
inclination: 51.6445°
perigee height: 402 km
apogee height: 404 km
right ascension of ascending node: 342.5924°
argument of perigee: 14.5468°
revolutions per day: 15.54711285
mean anomaly at epoch: 345.5721°
orbit number at epoch: 733

The dashed part of the orbit path shows where the satellite is in the earth's shadow,  

DLR